Terug naar catalogus

STARLINK-33989

ActiefCommunicatieVLEO
NORAD 63929·PAYLOAD·🇺🇸 United States

Gelanceerd May 13, 2025 vanaf Vandenberg Space Force Base

Loading…

Volgende Passages (komende 24 uur)

TLE

VersSource: CelesTrak SupGP

Epoch: Sep 14, 2026, 21:10 UTC

1 63929C 25098D   26257.88243056 -.00033765  00000+0 -11743-2 0  2571
2 63929  70.0005 155.8713 0003421 271.5912 353.9808 15.29602474    17

Volg STARLINK-33989 in realtime met AllMySat

Download on the App Store